Klawock, AK

5:53 PM AKDT on April 28, 2017 (GMT -0800)
Klawock

Weather History for PAKW - February, 2012

Change the Weather History Date:

Saturday, February 4, 2012

  Actual Average Record
Temperature  
Mean Temperature 35 °F -  
Max Temperature 42 °F 38 °F 48 °F (2016)
Min Temperature 28 °F 29 °F 23 °F (2014)
Degree Days  
Heating Degree Days 30    
Moisture  
Dew Point 32 °F    
Average Humidity 83    
Maximum Humidity 96    
Minimum Humidity 73    
Precipitation  
Precipitation 0.00 in - - ()
Sea Level Pressure  
Sea Level Pressure 30.12 in    
Wind  
Wind Speed 5 mph (NNE)    
Max Wind Speed 13 mph    
Max Gust Speed 22 mph    
Visibility 10 miles    
Events      
Averages and records for this station are not official NWS values.
T = Trace of Precipitation, MM = Missing Value Source: NWS Daily Summary

Daily Weather History Graph

Daily Weather History Graph

Search for Another Location

Airport or City:

Trip Planner

Search our weather history database for the weather conditions in past years. The results will help you decide how hot, cold, wet, or windy it might be!

Date:

Astronomy

Feb. 04, 2012 Rise Set
Actual Time 7:40 AM AKST 4:33 PM AKST
Civil Twilight 7:00 AM AKST 5:13 PM AKST
Nautical Twilight 6:16 AM AKST 5:57 PM AKST
Astronomical Twilight 5:33 AM AKST 6:40 PM AKST
Moon 1:16 PM AKST (2/4) 5:34 AM AKST (2/4)
Length of Visible Light 10h 13m
Length of Day
8h 52m
Waxing Gibbous, 90% of the Moon is Illuminated
Feb 4
Waxing Gibbous
Feb 7
Full
Feb 14
Last Quarter
Feb 21
New
Feb 29
First Quarter

Hourly Weather History & Observations

Time (AKST) Temp. Windchill Dew Point Humidity Pressure Visibility Wind Dir Wind Speed Gust Speed Precip Events Conditions
12:53 AM 34.0 °F 27.2 °F 33.1 °F 96% 30.11 in 10.0 mi NE 8.1 mph - N/A   Clear
1:53 AM 30.0 °F - 28.9 °F 96% 30.12 in 10.0 mi Calm Calm - N/A   Clear
2:53 AM 28.0 °F - 27.0 °F 96% 30.12 in 10.0 mi Calm Calm - N/A   Clear
3:53 AM 28.9 °F - 28.0 °F 96% 30.12 in 10.0 mi Calm Calm - N/A   Clear
4:53 AM 28.0 °F - 27.0 °F 96% 30.14 in 10.0 mi Calm Calm - N/A   Clear
5:53 AM 32.0 °F - 30.0 °F 92% 30.14 in 10.0 mi Calm Calm - N/A   Clear
6:53 AM 28.9 °F - 27.0 °F 92% 30.17 in 10.0 mi Calm Calm - N/A   Clear
7:53 AM 30.9 °F - 28.0 °F 89% 30.18 in 10.0 mi Calm Calm - N/A   Clear
8:53 AM 34.0 °F 28.0 °F 30.9 °F 89% 30.18 in 10.0 mi NNE 6.9 mph - N/A   Clear
9:53 AM 37.0 °F 31.6 °F 32.0 °F 82% 30.19 in 10.0 mi NNE 6.9 mph - N/A   Overcast
10:53 AM 39.9 °F 36.7 °F 33.1 °F 77% 30.20 in 10.0 mi NNE 4.6 mph - N/A   Overcast
11:53 AM 42.1 °F 40.2 °F 35.1 °F 76% 30.19 in 10.0 mi NNE 3.5 mph - N/A   Clear
12:53 PM 42.1 °F 36.6 °F 36.0 °F 79% 30.18 in 10.0 mi NNE 9.2 mph - N/A   Partly Cloudy
1:53 PM 41.0 °F 34.7 °F 36.0 °F 82% 30.17 in 10.0 mi NNE 10.4 mph - N/A   Scattered Clouds
2:53 PM 41.0 °F 35.2 °F 36.0 °F 82% 30.14 in 10.0 mi NNE 9.2 mph - N/A   Clear
3:53 PM 39.9 °F 35.8 °F 36.0 °F 86% 30.12 in 10.0 mi NE 5.8 mph - N/A   Clear
4:53 PM 39.9 °F 32.5 °F 34.0 °F 79% 30.10 in 10.0 mi NNE 12.7 mph 19.6 mph N/A   Clear
5:53 PM 39.9 °F 35.1 °F 33.1 °F 77% 30.08 in 10.0 mi NE 6.9 mph - N/A   Clear
6:53 PM 39.9 °F 35.1 °F 33.1 °F 77% 30.07 in 10.0 mi NE 6.9 mph - N/A   Clear
7:53 PM 41.0 °F 34.7 °F 33.1 °F 73% 30.05 in 10.0 mi NNE 10.4 mph 21.9 mph N/A   Clear
8:53 PM 41.0 °F 35.8 °F 33.1 °F 73% 30.03 in 10.0 mi NNE 8.1 mph - N/A   Clear
9:53 PM 41.0 °F 36.4 °F 33.1 °F 73% 30.01 in 10.0 mi NE 6.9 mph - N/A   Clear
10:53 PM 41.0 °F 34.3 °F 33.1 °F 73% 30.00 in 10.0 mi North 11.5 mph 19.6 mph N/A   Clear
11:53 PM 41.0 °F 34.7 °F 33.1 °F 73% 29.98 in 10.0 mi NE 10.4 mph 21.9 mph N/A   Clear